Flag Weather past 2 weeks in Soltau, Lower Saxony, Germany

Now
34 °F

Passing clouds.


Feels Like: 25 °F
Forecast: 29 / 34 °F
Wind: 13 mph from Southeast

Location: Fassberg

Current Time: Nov 28, 2014 at 5:36:51 AM

Latest Report: Nov 28, 2014 at 4:20 AM


Visibility: 4 mi

Pressure: 29.98 "Hg

Humidity: 87%

Dew point: 30 °F

Location of SoltauLocation

Historic Weather in Soltau — Graph

°F

Soltau temperature yesterday

Maximum temperature yesterday: 37 °F (at 12:20 PM)
Minimum temperature yesterday: 30 °F (at 8:20 AM)
Average temperature yesterday: 35 °F

Past Weeks' High & Low Weather Summary

 TemperatureHumidityPressure
High54 °F (Nov 14, 3:20 PM)100% (Nov 16, 11:20 AM)30.39 "Hg (Nov 16, 11:20 AM)
Low30 °F (Nov 25, 5:20 AM)62% (Nov 21, 12:20 PM)29.53 "Hg (Nov 16, 12:20 PM)
Average43 °F89%30.03 "Hg
* Reported Nov 13 4:20 AM — Nov 28 4:20 AM, Soltau, Weather by CustomWeather, © 2014

Note: Actual official high and low records may vary slightly from our data, if they occured in-between our weather recording intervals... More about our weather records

Advertising

Soltau weather history for previous 24 hours

 ConditionsComfort  
Time TempWeatherWind HumidityBarometerVisibility
4:20 AM
Nov 28
34 °FPassing clouds.13 mph87%29.98 "Hg4 mi
3:20 AM34 °FPassing clouds.13 mph87%29.95 "Hg4 mi
2:20 AM36 °FPassing clouds.15 mph81%29.95 "Hg5 mi
1:20 AM36 °FPassing clouds.13 mph87%29.95 "Hg5 mi
12:20 AM36 °FPassing clouds.14 mph87%29.95 "Hg5 mi
11:20 PM
Nov 27
36 °FPassing clouds.14 mph87%29.95 "Hg5 mi
10:20 PM34 °FPassing clouds.12 mph87%29.95 "Hg5 mi
9:20 PM34 °FPassing clouds.10 mph87%29.95 "Hg5 mi
8:20 PM34 °FPassing clouds.10 mph87%29.92 "HgN/A
7:20 PM34 °FPassing clouds.10 mph87%29.92 "HgN/A
6:20 PM36 °FPartly cloudy.10 mph81%29.92 "HgN/A
6:04 PM36 °FPartly cloudy.10 mph81%29.92 "Hg6 mi
5:20 PM36 °FPartly cloudy.9 mph81%29.92 "Hg6 mi
4:20 PM36 °FPartly cloudy.10 mph81%29.92 "Hg6 mi
3:20 PM37 °FPartly sunny.10 mph81%29.89 "HgN/A
2:20 PM37 °FBroken clouds.12 mph81%29.92 "HgN/A
1:20 PM37 °FPartly sunny.13 mph75%29.92 "HgN/A
12:20 PM37 °FScattered clouds.10 mph75%29.92 "HgN/A
11:20 AM36 °FScattered clouds.9 mph81%29.95 "Hg5 mi
10:20 AM34 °FPassing clouds.12 mph87%29.95 "Hg5 mi
9:20 AM32 °FScattered clouds.9 mph93%29.95 "Hg4 mi
8:20 AM30 °FIce fog.9 mph93%29.95 "Hg3 mi
7:20 AM32 °FPassing clouds.9 mph87%29.95 "Hg4 mi
6:20 AM32 °FPassing clouds.9 mph93%29.95 "Hg4 mi
5:20 AM32 °FPassing clouds.9 mph93%29.98 "Hg4 mi
Weather by CustomWeather, © 2014

See weather overviewHow to use our weather pages